Location: Agadir Irigdalene
(31.2522°N, 8.7797°W)
Time: 15:23:50
(UTC+00:00)

Cosmos 1470 Rocket - Pass Details

Date: 01 December 2020
Orbit: 604 x 633 km, 82.5° (Epoch: 25 January)

Event Time Altitude Azimuth Distance (km) Brightness Sun altitude
Rises 18:48:05 0° 347° (NNW) 2,861 6.9 -16.0°
Reaches altitude 10° 18:50:20 10° 343° (NNW) 1,954 6.1 -16.5°
Maximum altitude 18:54:32 52° 267° (W) 755 4.4 -17.3°
Drops below altitude 10° 18:58:42 10° 191° (S) 1,947 6.4 -18.2°
Sets 19:00:57 0° 186° (S) 2,850 7.2 -18.6°
